Date String (YYYY-MM-DD hh:mm:ss) UTC,Instrument flags,absolute air pressure of the measurement (hPa),sample flow rate (lpm),inlet stack bypass flow (lpm),air temperature of the measurement (°C),ambient temperature measured by the external sensor (°C),aerosol sample conditioner tube jacket temperature (°C),OPC LED temperature (°C),internal box temperature (°C),relative humidity of the measurement (%),span deviation,mass concentration of particles derived from Lorenz-Mie calculation of OPC scattering (μg/m³),mass concentration of particles derived from Lorenz-Mie calculation of OPC scattering (μg/m³),mass concentration of particles derived from Lorenz-Mie calculation of OPC scattering (μg/m³)
DateTimeUTC,F1_M11,P_M11,Q1_M11,Q2_M11,T1_M11,T2_M11,T3_M11,T4_M11,T5_M11,U1_M11,ZSPAN_M11,X0_M11,X2_M11,X1_M11
2024-06-10 13:00:00,SystemResetWarning,0830.2,5.00,000.00,031.3,030.6,000.0,039.8,033.0,032.7,0000.2,0017.05,0011.05,0010.39
2024-06-10 13:01:00,SystemResetWarning,0830.2,5.01,000.00,031.3,030.6,000.0,039.8,033.0,032.9,-000.1,0017.34,0011.16,0010.47
2024-06-10 13:02:00,SystemResetWarning,0830.2,5.01,000.00,031.3,030.6,000.0,039.8,033.0,032.9,0000.1,0017.38,0011.25,0010.55
2024-06-10 13:03:00,SystemResetWarning,0830.2,5.00,000.00,031.3,030.6,000.0,039.8,033.0,033.0,-000.1,0016.87,0011.31,0010.62
2024-06-10 13:04:00,SystemResetWarning,0830.1,5.01,000.00,031.3,030.6,000.0,039.8,033.0,033.1,0000.0,0016.12,0011.37,0010.68
2024-06-10 13:05:00,SystemResetWarning,0830.1,5.00,000.00,031.3,030.6,000.0,039.8,033.0,033.2,-000.4,0015.43,0011.39,0010.70
2024-06-10 13:06:00,SystemResetWarning,0830.2,5.00,000.00,031.3,030.6,000.0,039.8,033.0,033.2,-000.4,0016.00,0011.44,0010.75
2024-06-10 13:07:00,SystemResetWarning,0830.1,5.00,000.00,031.3,030.6,000.0,039.8,033.0,032.9,-000.5,0016.14,0011.53,0010.81
2024-06-10 13:08:00,SystemResetWarning,0830.2,5.00,000.00,031.3,030.6,000.0,039.8,033.0,032.7,-000.4,0016.44,0011.62,0010.88
2024-06-10 13:09:00,SystemResetWarning,0830.2,4.99,000.00,031.3,030.6,000.0,039.8,033.0,032.9,-000.1,0017.15,0011.68,0010.93
2024-06-10 13:10:00,SystemResetWarning,0830.2,4.99,000.00,031.3,030.6,000.0,039.8,033.0,033.2,-000.1,0017.13,0011.69,0010.93
2024-06-10 13:11:00,SystemResetWarning,0830.2,5.01,000.00,031.3,030.6,000.0,039.8,033.0,033.4,-000.0,0017.01,0011.66,0010.92
2024-06-10 13:12:00,SystemResetWarning,0830.3,5.01,000.00,031.3,030.6,000.0,039.8,033.0,033.4,0000.4,0017.20,0011.64,0010.91
2024-06-10 13:13:00,SystemResetWarning,0830.2,5.01,000.00,031.3,030.6,000.0,039.8,033.0,033.2,0000.0,0017.57,0011.59,0010.87
2024-06-10 13:14:00,SystemResetWarning,0830.3,5.00,000.00,031.4,030.6,000.0,039.8,033.0,033.2,0000.0,0018.01,0011.60,0010.85
2024-06-10 13:15:00,SystemResetWarning,0830.2,5.00,000.00,031.4,030.6,000.0,039.8,033.0,033.1,-000.1,0018.04,0011.60,0010.85
2024-06-10 13:16:00,SystemResetWarning,0830.2,4.99,000.00,031.4,030.6,000.0,039.8,033.0,033.0,0000.2,0018.09,0011.61,0010.85
2024-06-10 13:17:00,SystemResetWarning,0830.2,4.99,000.00,031.4,030.6,000.0,039.8,033.0,032.9,-000.1,0017.56,0011.60,0010.84
2024-06-10 13:18:00,SystemResetWarning,0830.2,4.99,000.00,031.4,030.6,000.0,039.8,033.0,032.6,-000.3,0017.54,0011.56,0010.85
2024-06-10 13:19:00,SystemResetWarning,0830.2,5.00,000.00,031.4,030.6,000.0,039.8,033.1,032.6,-000.5,0018.21,0011.54,0010.86
2024-06-10 13:20:00,SystemResetWarning,0830.2,5.00,000.00,031.4,030.6,000.0,039.8,033.1,032.8,-000.7,0017.42,0011.52,0010.86
2024-06-10 13:21:00,SystemResetWarning,0830.2,5.00,000.00,031.4,030.6,000.0,039.8,033.1,032.5,-000.6,0017.50,0011.56,0010.88
2024-06-10 13:22:00,SystemResetWarning,0830.2,5.00,000.00,031.4,030.7,000.0,039.8,033.1,032.5,-000.5,0017.69,0011.61,0010.92
2024-06-10 13:23:00,SystemResetWarning,0830.2,5.00,000.00,031.4,030.7,000.0,039.8,033.1,032.7,-000.5,0016.74,0011.61,0010.94
2024-06-10 13:24:00,SystemResetWarning,0830.3,5.00,000.00,031.4,030.7,000.0,039.9,033.1,033.0,-000.4,0016.60,0011.66,0010.99
2024-06-10 13:25:00,SystemResetWarning,0830.3,5.00,000.00,031.4,030.7,000.0,039.9,033.1,032.8,0000.1,0016.02,0011.71,0011.01
2024-06-10 13:26:00,SystemResetWarning,0830.3,5.00,000.00,031.4,030.7,000.0,039.9,033.0,032.9,0000.2,0016.24,0011.73,0011.01
2024-06-10 13:27:00,SystemResetWarning,0830.2,5.00,000.00,031.4,030.7,000.0,039.9,033.1,032.9,0000.2,0016.49,0011.73,0010.99
2024-06-10 13:28:00,SystemResetWarning,0830.3,4.99,000.00,031.4,030.7,000.0,039.9,033.1,033.2,0000.5,0016.63,0011.69,0010.96
2024-06-10 13:29:00,SystemResetWarning,0830.2,5.00,000.00,031.4,030.7,000.0,039.9,033.1,033.3,0001.2,0016.35,0011.67,0010.92
2024-06-10 13:30:00,SystemResetWarning,0830.2,5.01,000.00,031.4,030.7,000.0,039.9,033.1,033.3,0001.7,0016.06,0011.63,0010.86
2024-06-10 13:31:00,SystemResetWarning,0830.1,5.00,000.00,031.4,030.7,000.0,039.9,033.1,032.9,0002.2,0015.80,0011.58,0010.80
2024-06-10 13:32:00,SystemResetWarning,0830.1,5.00,000.00,031.4,030.7,000.0,039.9,033.1,032.7,0002.1,0015.95,0011.52,0010.76
2024-06-10 13:33:00,SystemResetWarning,0830.1,5.00,000.00,031.4,030.7,000.0,039.9,033.0,032.7,0002.0,0016.71,0011.50,0010.71
2024-06-10 13:34:00,SystemResetWarning,0830.1,5.00,000.00,031.4,030.7,000.0,039.9,033.1,032.8,0001.5,0017.18,0011.56,0010.73
2024-06-10 13:35:00,SystemResetWarning,0830.1,5.00,000.00,031.4,030.6,000.0,039.9,033.1,032.4,0001.5,0017.54,0011.63,0010.81
2024-06-10 13:36:00,SystemResetWarning,0830.1,5.00,000.00,031.4,030.6,000.0,039.9,033.1,032.8,0001.3,0017.60,0011.71,0010.90
2024-06-10 13:37:00,SystemResetWarning,0830.1,5.00,000.00,031.4,030.6,000.0,039.9,033.1,032.9,0001.5,0017.80,0011.81,0010.99
2024-06-10 13:38:00,SystemResetWarning,0830.1,5.00,000.00,031.4,030.6,000.0,039.9,033.1,032.6,0001.7,0017.76,0011.83,0011.04
2024-06-10 13:39:00,SystemResetWarning,0830.1,5.00,000.00,031.4,030.6,000.0,039.9,033.0,032.7,0001.2,0017.43,0011.89,0011.12
2024-06-10 13:40:00,SystemResetWarning,0830.1,4.99,000.00,031.4,030.6,000.0,039.9,033.0,032.6,0001.1,0017.53,0011.95,0011.19
2024-06-10 13:41:00,SystemResetWarning,0830.0,5.00,000.00,031.4,030.6,000.0,039.9,033.1,032.5,0000.8,0017.69,0012.04,0011.25
2024-06-10 13:42:00,SystemResetWarning,0830.0,5.00,000.00,031.4,030.6,000.0,039.9,033.0,032.6,0000.3,0019.01,0012.12,0011.32
2024-06-10 13:43:00,SystemResetWarning,0830.0,4.99,000.00,031.4,030.6,000.0,039.9,033.1,032.6,0000.4,0019.14,0012.18,0011.36
2024-06-10 13:44:00,SystemResetWarning,0830.0,5.00,000.00,031.4,030.6,000.0,039.9,033.1,033.3,0000.5,0018.37,0012.17,0011.39
2024-06-10 13:45:00,SystemResetWarning,0830.0,5.01,000.00,031.4,030.6,000.0,039.9,033.0,033.2,0000.9,0017.93,0012.08,0011.33
2024-06-10 13:46:00,SystemResetWarning,0830.0,5.01,000.00,031.4,030.6,000.0,039.9,033.0,032.5,0000.7,0018.18,0012.02,0011.24
2024-06-10 13:47:00,SystemResetWarning,0830.0,5.00,000.00,031.4,030.6,000.0,039.9,033.0,032.4,0000.3,0018.09,0011.95,0011.15
2024-06-10 13:48:00,SystemResetWarning,0830.0,4.99,000.00,031.4,030.6,000.0,039.9,033.0,032.2,-000.2,0017.79,0011.87,0011.07
2024-06-10 13:49:00,SystemResetWarning,0830.0,5.00,000.00,031.4,030.6,000.0,039.9,033.0,032.4,-000.4,0017.45,0011.81,0011.02
2024-06-10 13:50:00,SystemResetWarning,0830.0,5.00,000.00,031.4,030.6,000.0,039.9,033.1,032.5,-000.4,0017.35,0011.74,0010.96
2024-06-10 13:51:00,SystemResetWarning,0830.1,5.00,000.00,031.4,030.6,000.0,039.9,033.0,032.6,-000.6,0017.40,0011.71,0010.92
2024-06-10 13:52:00,SystemResetWarning,0830.1,5.00,000.00,031.4,030.6,000.0,039.9,033.1,032.5,-000.7,0016.94,0011.75,0010.94
2024-06-10 13:53:00,SystemResetWarning,0830.0,5.00,000.00,031.4,030.6,000.0,039.9,033.0,032.2,-000.8,0015.88,0011.76,0010.94
2024-06-10 13:54:00,SystemResetWarning,0830.0,5.00,000.00,031.4,030.6,000.0,039.9,033.0,032.4,-000.7,0016.10,0011.74,0010.93
2024-06-10 13:55:00,SystemResetWarning,0830.0,5.01,000.00,031.4,030.6,000.0,039.9,033.0,033.0,-001.0,0016.47,0011.77,0010.94
2024-06-10 13:56:00,SystemResetWarning,0830.0,5.00,000.00,031.4,030.6,000.0,039.9,033.0,033.1,-001.1,0016.87,0011.78,0010.97
2024-06-10 13:57:00,SystemResetWarning,0830.0,4.99,000.00,031.4,030.6,000.0,039.9,033.0,034.1,-000.8,0016.33,0011.78,0010.99
2024-06-10 13:58:00,SystemResetWarning,0830.1,5.00,000.00,031.4,030.6,000.0,039.9,033.1,033.7,-000.7,0016.39,0011.75,0011.00
2024-06-10 13:59:00,SystemResetWarning,0830.0,4.99,000.00,031.4,030.5,000.0,039.9,032.9,033.3,-000.7,0017.15,0011.76,0011.02
